Regional Weather Roundup
Issued by NWS

Home | Current Version | Previous Version | Graphics & Text | Print | Product List | Glossary On
Versions: 1 2 3 4 5 6 7 8 9 10 11 12 13 14 15 16 17 18 19 20 21 22 23 24 25 26 27 28 29 30 31 32 33 34 35 36 37 38 39 40 41 42 43 44 45 46 47 48 49 50
000
ASUS43 KOAX 222210
RWRNE

WEATHER ROUNDUP FOR NEBRASKA
NATIONAL WEATHER SERVICE OMAHA NE
400 PM CST THU FEB 22 2018

NOTES: SATELLITE DATA IS BEING USED TO AUGMENT CLOUD COVER ABOVE
       12000 FEET.
       "FAIR" INDICATES FEW OR NO CLOUDS BELOW 12,000 FEET WITH NO
       SIGNIFICANT WEATHER AND/OR OBSTRUCTIONS TO VISIBILITY.


NEZ001>004-019>022-054>056-222300-
NEBRASKA PANHANDLE

CITY           SKY/WX    TMP DP  RH WIND       PRES   REMARKS
SCOTTSBLUFF    CLOUDY    25  19  78 CALM      30.00R
ALLIANCE       LGT SNOW  21  18  88 SW6       29.99S FOG     WCI  13
CHADRON        CLOUDY    23  15  71 N5        30.03S WCI  17
GORDON         LGT SNOW  23  19  83 W6        30.01S WCI  16
KIMBALL        CLOUDY    22  15  74 CALM      29.95R
SIDNEY         CLOUDY    25  15  66 VRB6      29.98S WCI  18
$$

NEZ057>060-069>072-079>082-222300-
SOUTHWEST NEBRASKA

CITY           SKY/WX    TMP DP  RH WIND       PRES   REMARKS
NORTH PLATTE   CLOUDY    23  17  78 E8        30.09F WCI  14
IMPERIAL       CLOUDY    24  18  77 SE10      30.04F WCI  14
LEXINGTON      LGT SNOW  26  22  86 S5        30.12F WCI  20
MCCOOK         CLOUDY    23  21  92 SE6       30.10F FOG     WCI  16
OGALLALA       CLOUDY    25  17  72 SE7       30.05F WCI  17
$$

NEZ005>010-023>029-035>040-094-222300-
NORTH CENTRAL NEBRASKA

CITY           SKY/WX    TMP DP  RH WIND       PRES   REMARKS
VALENTINE      LGT SNOW  24  19  81 SE9       30.09S WCI  14
AINSWORTH      CLOUDY    22  19  89 SE8       30.11S WCI  13
BROKEN BOW     LGT SNOW  23  19  85 SE3       30.11S FOG
O`NEILL        SNOW      22  21  96 SE6       30.16R VSB 1/2 WCI  15
ORD            LGT SNOW  23  19  85 S6        30.14  VSB 3/4 WCI  16
THEDFORD       CLOUDY    23  19  85 SE6       30.09F WCI  16
$$

NEZ041-046>049-061>064-073>077-083>087-222300-
SOUTH CENTRAL NEBRASKA

CITY           SKY/WX    TMP DP  RH WIND       PRES   REMARKS
GRAND ISLAND   CLOUDY    26  21  81 S7        30.16S WCI  18
AURORA         CLOUDY    26  23  88 SE6       30.15F WCI  20
HASTINGS       MIX PCPN  25  22  88 SE5       30.14F WCI  19
HEBRON         MIX PCPN  29  28  93 SE5       30.16F WCI  24
HOLDREGE       CLOUDY    25  23  93 CALM      30.12F
KEARNEY        LGT SNOW  25  21  86 S5        30.14F FOG     WCI  19
YORK           FLURRIES  27  27 100 SE7       30.17F WCI  19
$$

NEZ011>018-030>034-042>045-222300-
NORTHEAST NEBRASKA

CITY           SKY/WX    TMP DP  RH WIND       PRES   REMARKS
NORFOLK        CLOUDY    25  22  88 SE7       30.16F WCI  17
ALBION         CLOUDY    25  22  85 S6        30.16F WCI  18
BLAIR          CLOUDY    29  27  93 E8        30.20F FOG     WCI  21
COLUMBUS       CLOUDY    27  23  85 SE7       30.19F WCI  19
FREMONT        CLOUDY    28  26  93 SE8       30.20F WCI  20
TEKAMAH        CLOUDY    28  26  92 E10       30.21F WCI  19
WAYNE          CLOUDY    26  25  96 SE10      30.20F WCI  16
$$

NEZ050>053-065>068-078-088>093-222300-
SOUTHEAST NEBRASKA

CITY           SKY/WX    TMP DP  RH WIND       PRES   REMARKS
LINCOLN        CLOUDY    30  27  88 SE10      30.20F WCI  21
OMAHA EPPLEY   CLOUDY    30  27  88 SE9       30.22F WCI  22
BEATRICE       CLOUDY    31  29  93 E6        30.18F WCI  25
FALLS CITY     CLOUDY    31  29  92 E9        30.20F WCI  23
NEBRASKA CITY  MIX PCPN  30  30 100 SE8       30.21F WCI  23
PLATTSMOUTH    CLOUDY    30  29  94 E9        30.20F WCI  22
$$

NEZ044-045-051>053-067-222300-
OMAHA AREA

CITY           SKY/WX    TMP DP  RH WIND       PRES   REMARKS
OMAHA EPPLEY   CLOUDY    30  27  88 SE9       30.22F WCI  22
BLAIR          CLOUDY    29  27  93 E8        30.20F FOG     WCI  21
FREMONT        CLOUDY    28  26  93 SE8       30.20F WCI  20
MILLARD        CLOUDY    31  28  90 SE8       30.21F WCI  23
OFFUTT AFB     CLOUDY    30  27  89 E10       30.21F WCI  21
PLATTSMOUTH    CLOUDY    30  29  94 E9        30.20F WCI  22
WAHOO          CLOUDY    29  27  95 SE9       30.20F FOG     WCI  20
$$



USA.gov is the U.S. government's official web portal to all federal, state and local government web resources and services.